Location: *
(58.7167°N, 26.1833°E)
Time: 00:38:56
(UTC+00:00)

Cosmos 1536 Rocket - Pass Details

Date: 25 August 2019
Orbit: 605 x 633 km, 82.5° (Epoch: 22 October)

Event Time Altitude Azimuth Distance (km) Brightness Sun altitude
Rises 18:50:59 0° 349° (NNW) 2,931 7.9 -9.1°
Reaches altitude 10° 18:53:23 10° 357° (N) 2,015 6.8 -9.4°
Maximum altitude 18:57:33 37° 66° (ENE) 977 4.4 -9.8°
Enters shadow 19:00:56 14° 130° (SE) 1,736 5.2 -10.1°
